User: anonymous   Login
Location: Newark
(49.2191°N, 12.6671°E)
Time: 10:04:40
(UTC+00:00)
Language:

Courier 1B - Orbit

View from above orbital plane
View from above orbital plane
View from above satellite
View from above satellite

Ground track
Ground track

The orbit data is extracted from the following two-line orbital elements,

1    58U 60013A   20027.65080984 +.00000099 +00000-0 +21586-4 0  9998
2    58 028.3286 094.0294 0165047 335.2944 023.9769 13.46320680919496
Epoch (UTC): 27 January 2020 15:37:09
Eccentricity: 0.0165047
inclination: 28.3286°
perigee height: 962 km
apogee height: 1209 km
right ascension of ascending node: 94.0294°
argument of perigee: 335.2944°
revolutions per day: 13.46320680
mean anomaly at epoch: 23.9769°
orbit number at epoch: 91949

The dashed part of the orbit path shows where the satellite is in the earth's shadow,  

DLR